Location: Caltech
(34.1382°N, 118.1253°W)
Time: 10:44:25
(UTC-07:00)

UOSAT-12 - Visible Passes

Search period start: 24 July 2014 00:00
Search period end: 03 August 2014 00:00
Orbit: 595 x 663 km, 64.6° (Epoch: 23 July)

Date Brightness Start Highest point End Pass type
(mag) Time Alt. Az. Time Alt. Az. Time Alt. Az.
24 Jul 9.6 00:54:38 10° NNW 00:56:15 21° NNW 00:56:15 21° NNW visible
24 Jul 9.7 23:36:38 10° NNE 23:38:31 14° NE 23:38:31 14° NE visible
25 Jul 9.9 01:15:10 10° NW 01:15:50 14° NW 01:15:50 14° NW visible
25 Jul 9.4 23:56:02 10° N 23:58:10 22° NNE 23:58:10 22° NNE visible
27 Jul 9.5 00:16:11 10° NNW 00:17:51 22° NNW 00:17:51 22° NNW visible
27 Jul 9.4 22:57:49 10° N 23:00:17 17° NE 23:00:17 17° NE visible
28 Jul 9.9 00:36:52 10° NW 00:37:36 14° NW 00:37:36 14° NW visible
28 Jul 9.0 23:17:29 10° NNW 23:20:04 27° NNE 23:20:04 27° NNE visible
29 Jul 9.6 22:00:55 10° NE 22:01:40 10° NE 22:02:25 10° NE visible
29 Jul 9.2 23:37:47 10° NNW 23:39:54 27° NNW 23:39:54 27° NNW visible
30 Jul 8.9 22:19:06 10° N 22:22:28 21° NE 22:22:28 21° NE visible
30 Jul 9.7 23:58:36 10° NW 23:59:47 17° NW 23:59:47 17° NW visible
31 Jul 8.3 22:38:58 10° NNW 22:42:23 38° NNE 22:42:23 38° NNE visible
01 Aug 9.4 21:21:21 10° NNE 21:23:26 13° NE 21:25:01 11° ENE visible
01 Aug 8.5 22:59:24 10° NNW 23:02:21 38° NW 23:02:21 38° NW visible
02 Aug 8.5 21:40:27 10° N 21:44:24 26° NE 21:45:03 25° ENE visible
02 Aug 9.4 23:20:25 10° NW 23:22:23 21° WNW 23:22:23 21° WNW visible
